owner,sensor,date,latitude,longitude,vertical_datum,wind_speed,wind_to_direction,wind_speed_of_gust,qcFlag 
TCOON,ioos:station:TCOON:057:1,2014-08-01T00:00:00Z,28.4460,-96.3961,0.0,6.9,144.0,7.9,'11111222,11111222,11111222' 
TCOON,ioos:station:TCOON:057:1,2014-08-01T00:06:00Z,28.4460,-96.3961,0.0,7.3,147.0,8.9,'11111222,11111222,11111222' 
TCOON,ioos:station:TCOON:057:1,2014-08-01T00:12:00Z,28.4460,-96.3961,0.0,7.3,147.0,8.9,'1111122,1111122,1111122' 
TCOON,ioos:station:TCOON:057:1,2014-08-01T00:18:00Z,28.4460,-96.3961,0.0,7.3,147.0,8.7,'11111222,11111222,11111222' 
TCOON,ioos:station:TCOON:057:1,2014-08-01T00:24:00Z,28.4460,-96.3961,0.0,7.3,147.0,8.9,'11111222,11111222,11111222' 
TCOON,ioos:station:TCOON:057:1,2014-08-01T00:30:00Z,28.4460,-96.3961,0.0,7.6,155.0,8.8,'11111222,11111222,11111222' 
TCOON,ioos:station:TCOON:057:1,2014-08-01T00:36:00Z,28.4460,-96.3961,0.0,7.6,155.0,8.6,'11111222,11111222,11111222' 
TCOON,ioos:station:TCOON:057:1,2014-08-01T00:42:00Z,28.4460,-96.3961,0.0,7.2,157.0,8.9,'11111222,11111222,11111222' 
TCOON,ioos:station:TCOON:057:1,2014-08-01T00:48:00Z,28.4460,-96.3961,0.0,7.4,160.0,9.0,'11111222,11111222,11111222' 
TCOON,ioos:station:TCOON:057:1,2014-08-01T00:54:00Z,28.4460,-96.3961,0.0,7.4,157.0,8.9,'11111222,11111222,11111222' 
TCOON,ioos:station:TCOON:057:1,2014-08-01T01:00:00Z,28.4460,-96.3961,0.0,6.7,157.0,8.5,'11111222,11111222,11111222' 
TCOON,ioos:station:TCOON:057:1,2014-08-01T01:06:00Z,28.4460,-96.3961,0.0,7.6,159.0,8.9,'11111222,11111222,11111222' 
TCOON,ioos:station:TCOON:057:1,2014-08-01T01:12:00Z,28.4460,-96.3961,0.0,7.6,159.0,8.9,'1111122,1111122,1111122' 
TCOON,ioos:station:TCOON:057:1,2014-08-01T01:18:00Z,28.4460,-96.3961,0.0,7.9,155.0,9.2,'11111222,11111222,11111222' 
TCOON,ioos:station:TCOON:057:1,2014-08-01T01:24:00Z,28.4460,-96.3961,0.0,8.5,154.0,10.0,'11111222,11111222,11111222' 
TCOON,ioos:station:TCOON:057:1,2014-08-01T01:30:00Z,28.4460,-96.3961,0.0,8.4,157.0,9.8,'11111222,11111222,11111222' 
TCOON,ioos:station:TCOON:057:1,2014-08-01T01:36:00Z,28.4460,-96.3961,0.0,8.8,153.0,10.2,'11111222,11111222,11111222' 
TCOON,ioos:station:TCOON:057:1,2014-08-01T01:42:00Z,28.4460,-96.3961,0.0,9.1,154.0,10.3,'11111222,11111222,11111222' 
TCOON,ioos:station:TCOON:057:1,2014-08-01T01:48:00Z,28.4460,-96.3961,0.0,8.6,155.0,9.8,'11111222,11111222,11111222' 
TCOON,ioos:station:TCOON:057:1,2014-08-01T01:54:00Z,28.4460,-96.3961,0.0,7.7,157.0,10.2,'11111222,11111222,11111222' 
TCOON,ioos:station:TCOON:057:1,2014-08-01T02:00:00Z,28.4460,-96.3961,0.0,8.4,157.0,9.7,'11111222,11111222,11111222' 
TCOON,ioos:station:TCOON:057:1,2014-08-01T02:06:00Z,28.4460,-96.3961,0.0,8.6,160.0,10.1,'11111222,11111222,11111222' 
TCOON,ioos:station:TCOON:057:1,2014-08-01T02:12:00Z,28.4460,-96.3961,0.0,8.6,160.0,10.1,'1111122,1111122,1111122' 
TCOON,ioos:station:TCOON:057:1,2014-08-01T02:18:00Z,28.4460,-96.3961,0.0,7.7,156.0,9.3,'11111222,11111222,11111222' 
TCOON,ioos:station:TCOON:057:1,2014-08-01T02:24:00Z,28.4460,-96.3961,0.0,8.7,159.0,10.2,'11111222,11111222,11111222' 
TCOON,ioos:station:TCOON:057:1,2014-08-01T02:30:00Z,28.4460,-96.3961,0.0,8.5,159.0,9.9,'11111222,11111222,11111222' 
TCOON,ioos:station:TCOON:057:1,2014-08-01T02:36:00Z,28.4460,-96.3961,0.0,8.1,157.0,9.2,'11111222,11111222,11111222' 
TCOON,ioos:station:TCOON:057:1,2014-08-01T02:42:00Z,28.4460,-96.3961,0.0,8.0,158.0,9.7,'11111222,11111222,11111222' 
TCOON,ioos:station:TCOON:057:1,2014-08-01T02:48:00Z,28.4460,-96.3961,0.0,7.8,154.0,9.3,'11111222,11111222,11111222' 
TCOON,ioos:station:TCOON:057:1,2014-08-01T02:54:00Z,28.4460,-96.3961,0.0,6.9,153.0,9.0,'11111222,11111222,11111222' 
TCOON,ioos:station:TCOON:057:1,2014-08-01T03:00:00Z,28.4460,-96.3961,0.0,7.4,152.0,8.4,'11111222,11111222,11111222' 
TCOON,ioos:station:TCOON:057:1,2014-08-01T03:06:00Z,28.4460,-96.3961,0.0,7.3,152.0,8.3,'11111222,11111222,11111222' 
TCOON,ioos:station:TCOON:057:1,2014-08-01T03:12:00Z,28.4460,-96.3961,0.0,7.3,152.0,8.3,'1111122,1111122,1111122' 
TCOON,ioos:station:TCOON:057:1,2014-08-01T03:18:00Z,28.4460,-96.3961,0.0,8.4,158.0,9.6,'11111222,11111222,11111222' 
TCOON,ioos:station:TCOON:057:1,2014-08-01T03:24:00Z,28.4460,-96.3961,0.0,7.9,154.0,8.9,'11111222,11111222,11111222' 
TCOON,ioos:station:TCOON:057:1,2014-08-01T03:30:00Z,28.4460,-96.3961,0.0,7.0,156.0,8.7,'11111222,11111222,11111222' 
TCOON,ioos:station:TCOON:057:1,2014-08-01T03:36:00Z,28.4460,-96.3961,0.0,7.2,160.0,8.2,'11111222,11111222,11111222' 
TCOON,ioos:station:TCOON:057:1,2014-08-01T03:42:00Z,28.4460,-96.3961,0.0,7.4,159.0,8.4,'11111222,11111222,11111222' 
TCOON,ioos:station:TCOON:057:1,2014-08-01T03:48:00Z,28.4460,-96.3961,0.0,7.4,160.0,9.0,'11111222,11111222,11111222' 
TCOON,ioos:station:TCOON:057:1,2014-08-01T03:54:00Z,28.4460,-96.3961,0.0,7.6,166.0,8.6,'11111222,11111222,11111222' 
TCOON,ioos:station:TCOON:057:1,2014-08-01T04:00:00Z,28.4460,-96.3961,0.0,7.6,166.0,9.0,'11111222,11111222,11111222' 
TCOON,ioos:station:TCOON:057:1,2014-08-01T04:06:00Z,28.4460,-96.3961,0.0,8.7,169.0,9.5,'11111222,11111222,11111222' 
TCOON,ioos:station:TCOON:057:1,2014-08-01T04:12:00Z,28.4460,-96.3961,0.0,8.7,169.0,9.5,'1111122,1111122,1111122' 
TCOON,ioos:station:TCOON:057:1,2014-08-01T04:18:00Z,28.4460,-96.3961,0.0,8.0,171.0,9.6,'11111222,11111222,11111222' 
TCOON,ioos:station:TCOON:057:1,2014-08-01T04:24:00Z,28.4460,-96.3961,0.0,7.7,169.0,10.1,'11111222,11111222,11111222' 
TCOON,ioos:station:TCOON:057:1,2014-08-01T04:30:00Z,28.4460,-96.3961,0.0,8.7,165.0,10.7,'11111222,11111222,11111222' 
TCOON,ioos:station:TCOON:057:1,2014-08-01T04:36:00Z,28.4460,-96.3961,0.0,8.7,169.0,10.7,'11111222,11111222,11111222' 
TCOON,ioos:station:TCOON:057:1,2014-08-01T04:42:00Z,28.4460,-96.3961,0.0,8.2,168.0,10.0,'11111222,11111222,11111222' 
TCOON,ioos:station:TCOON:057:1,2014-08-01T04:48:00Z,28.4460,-96.3961,0.0,8.5,167.0,9.8,'11111222,11111222,11111222' 
TCOON,ioos:station:TCOON:057:1,2014-08-01T04:54:00Z,28.4460,-96.3961,0.0,7.7,166.0,9.4,'11111222,11111222,11111222' 
TCOON,ioos:station:TCOON:057:1,2014-08-01T05:00:00Z,28.4460,-96.3961,0.0,8.0,167.0,9.3,'11111222,11111222,11111222' 
TCOON,ioos:station:TCOON:057:1,2014-08-01T05:06:00Z,28.4460,-96.3961,0.0,7.9,166.0,8.9,'11111222,11111222,11111222' 
TCOON,ioos:station:TCOON:057:1,2014-08-01T05:12:00Z,28.4460,-96.3961,0.0,7.9,166.0,8.9,'1111122,1111122,1111122' 
TCOON,ioos:station:TCOON:057:1,2014-08-01T05:18:00Z,28.4460,-96.3961,0.0,7.8,172.0,8.7,'11111222,11111222,11111222' 
TCOON,ioos:station:TCOON:057:1,2014-08-01T05:24:00Z,28.4460,-96.3961,0.0,7.3,172.0,8.7,'11111222,11111222,11111222' 
TCOON,ioos:station:TCOON:057:1,2014-08-01T05:30:00Z,28.4460,-96.3961,0.0,7.3,173.0,8.6,'11111222,11111222,11111222' 
TCOON,ioos:station:TCOON:057:1,2014-08-01T05:36:00Z,28.4460,-96.3961,0.0,7.0,170.0,8.6,'11111222,11111222,11111222' 
TCOON,ioos:station:TCOON:057:1,2014-08-01T05:42:00Z,28.4460,-96.3961,0.0,7.1,172.0,8.4,'11111222,11111222,11111222' 
TCOON,ioos:station:TCOON:057:1,2014-08-01T05:48:00Z,28.4460,-96.3961,0.0,7.0,170.0,8.2,'11111222,11111222,11111222' 
TCOON,ioos:station:TCOON:057:1,2014-08-01T05:54:00Z,28.4460,-96.3961,0.0,6.5,170.0,7.9,'11111222,11111222,11111222' 
TCOON,ioos:station:TCOON:057:1,2014-08-01T06:00:00Z,28.4460,-96.3961,0.0,6.6,172.0,8.3,'11111222,11111222,11111222' 
TCOON,ioos:station:TCOON:057:1,2014-08-01T06:06:00Z,28.4460,-96.3961,0.0,7.1,176.0,8.4,'11111222,11111222,11111222' 
TCOON,ioos:station:TCOON:057:1,2014-08-01T06:12:00Z,28.4460,-96.3961,0.0,6.7,173.0,8.3,'11111222,11111222,11111222' 
TCOON,ioos:station:TCOON:057:1,2014-08-01T06:18:00Z,28.4460,-96.3961,0.0,6.6,173.0,7.8,'11111222,11111222,11111222' 
TCOON,ioos:station:TCOON:057:1,2014-08-01T06:24:00Z,28.4460,-96.3961,0.0,6.5,175.0,7.7,'11111222,11111222,11111222' 
TCOON,ioos:station:TCOON:057:1,2014-08-01T06:30:00Z,28.4460,-96.3961,0.0,6.8,177.0,7.7,'11111222,11111222,11111222' 
TCOON,ioos:station:TCOON:057:1,2014-08-01T06:36:00Z,28.4460,-96.3961,0.0,6.0,176.0,7.7,'11111222,11111222,11111222' 
TCOON,ioos:station:TCOON:057:1,2014-08-01T06:42:00Z,28.4460,-96.3961,0.0,6.0,176.0,7.7,'1111122,1111122,1111122' 
TCOON,ioos:station:TCOON:057:1,2014-08-01T06:48:00Z,28.4460,-96.3961,0.0,4.7,188.0,6.3,'11111222,11111222,11111222' 
TCOON,ioos:station:TCOON:057:1,2014-08-01T06:54:00Z,28.4460,-96.3961,0.0,4.1,185.0,5.6,'11111222,11111222,11111222' 
TCOON,ioos:station:TCOON:057:1,2014-08-01T07:00:00Z,28.4460,-96.3961,0.0,4.5,188.0,5.5,'11111222,11111222,11111222' 
TCOON,ioos:station:TCOON:057:1,2014-08-01T07:06:00Z,28.4460,-96.3961,0.0,3.8,194.0,5.0,'11111222,11111222,11111222' 
TCOON,ioos:station:TCOON:057:1,2014-08-01T07:12:00Z,28.4460,-96.3961,0.0,3.8,194.0,5.0,'1111122,1111122,1111122' 
TCOON,ioos:station:TCOON:057:1,2014-08-01T07:18:00Z,28.4460,-96.3961,0.0,4.3,193.0,4.8,'11111222,11111222,11111222' 
TCOON,ioos:station:TCOON:057:1,2014-08-01T07:24:00Z,28.4460,-96.3961,0.0,3.5,199.0,4.9,'11111222,11111222,11111222' 
TCOON,ioos:station:TCOON:057:1,2014-08-01T07:30:00Z,28.4460,-96.3961,0.0,3.0,201.0,3.8,'11111222,11111222,11111222' 
TCOON,ioos:station:TCOON:057:1,2014-08-01T07:36:00Z,28.4460,-96.3961,0.0,3.0,200.0,3.7,'11111222,11111222,11111222' 
TCOON,ioos:station:TCOON:057:1,2014-08-01T07:42:00Z,28.4460,-96.3961,0.0,3.3,203.0,4.5,'11111222,11111222,11111222' 
TCOON,ioos:station:TCOON:057:1,2014-08-01T07:48:00Z,28.4460,-96.3961,0.0,4.2,194.0,5.1,'11111222,11111222,11111222' 
TCOON,ioos:station:TCOON:057:1,2014-08-01T07:54:00Z,28.4460,-96.3961,0.0,3.5,195.0,4.7,'11111222,11111222,11111222' 
TCOON,ioos:station:TCOON:057:1,2014-08-01T08:00:00Z,28.4460,-96.3961,0.0,3.6,190.0,5.0,'11111222,11111222,11111222' 
TCOON,ioos:station:TCOON:057:1,2014-08-01T08:06:00Z,28.4460,-96.3961,0.0,3.1,201.0,5.1,'11111222,11111222,11111222' 
TCOON,ioos:station:TCOON:057:1,2014-08-01T08:12:00Z,28.4460,-96.3961,0.0,3.1,201.0,5.1,'1111122,1111122,1111122' 
TCOON,ioos:station:TCOON:057:1,2014-08-01T08:18:00Z,28.4460,-96.3961,0.0,3.8,207.0,5.0,'11111222,11111222,11111222' 
TCOON,ioos:station:TCOON:057:1,2014-08-01T08:24:00Z,28.4460,-96.3961,0.0,4.2,211.0,4.9,'11111222,11111222,11111222' 
TCOON,ioos:station:TCOON:057:1,2014-08-01T08:30:00Z,28.4460,-96.3961,0.0,3.4,208.0,4.9,'11111222,11111222,11111222' 
TCOON,ioos:station:TCOON:057:1,2014-08-01T08:36:00Z,28.4460,-96.3961,0.0,3.6,213.0,4.3,'11111222,11111222,11111222' 
TCOON,ioos:station:TCOON:057:1,2014-08-01T08:42:00Z,28.4460,-96.3961,0.0,4.3,213.0,5.0,'11111222,11111222,11111222' 
TCOON,ioos:station:TCOON:057:1,2014-08-01T08:48:00Z,28.4460,-96.3961,0.0,3.4,204.0,5.4,'11111222,11111222,11111222' 
TCOON,ioos:station:TCOON:057:1,2014-08-01T08:54:00Z,28.4460,-96.3961,0.0,3.3,213.0,4.0,'11111222,11111222,11111222' 
TCOON,ioos:station:TCOON:057:1,2014-08-01T09:00:00Z,28.4460,-96.3961,0.0,3.5,215.0,4.5,'11111222,11111222,11111222' 
TCOON,ioos:station:TCOON:057:1,2014-08-01T09:06:00Z,28.4460,-96.3961,0.0,4.0,208.0,5.1,'11111222,11111222,11111222' 
TCOON,ioos:station:TCOON:057:1,2014-08-01T09:12:00Z,28.4460,-96.3961,0.0,4.0,208.0,5.1,'1111122,1111122,1111122' 
TCOON,ioos:station:TCOON:057:1,2014-08-01T09:18:00Z,28.4460,-96.3961,0.0,3.3,213.0,4.7,'11111222,11111222,11111222' 
TCOON,ioos:station:TCOON:057:1,2014-08-01T09:24:00Z,28.4460,-96.3961,0.0,4.1,203.0,4.9,'11111222,11111222,11111222' 
TCOON,ioos:station:TCOON:057:1,2014-08-01T09:30:00Z,28.4460,-96.3961,0.0,3.7,219.0,5.1,'11111222,11111222,11111222' 
TCOON,ioos:station:TCOON:057:1,2014-08-01T09:36:00Z,28.4460,-96.3961,0.0,3.7,212.0,5.0,'11111222,11111222,11111222' 
TCOON,ioos:station:TCOON:057:1,2014-08-01T09:42:00Z,28.4460,-96.3961,0.0,4.2,220.0,5.0,'11111222,11111222,11111222' 
TCOON,ioos:station:TCOON:057:1,2014-08-01T09:48:00Z,28.4460,-96.3961,0.0,3.3,210.0,4.6,'11111222,11111222,11111222' 
TCOON,ioos:station:TCOON:057:1,2014-08-01T09:54:00Z,28.4460,-96.3961,0.0,4.3,224.0,5.0,'11111222,11111222,11111222' 
TCOON,ioos:station:TCOON:057:1,2014-08-01T10:00:00Z,28.4460,-96.3961,0.0,3.7,228.0,5.0,'11111222,11111222,11111222' 
TCOON,ioos:station:TCOON:057:1,2014-08-01T10:06:00Z,28.4460,-96.3961,0.0,2.6,286.0,3.3,'11111222,11111222,11111222' 
TCOON,ioos:station:TCOON:057:1,2014-08-01T10:12:00Z,28.4460,-96.3961,0.0,2.6,286.0,3.3,'1111122,1111122,1111122' 
TCOON,ioos:station:TCOON:057:1,2014-08-01T10:18:00Z,28.4460,-96.3961,0.0,2.2,267.0,3.0,'11111222,11111222,11111222' 
TCOON,ioos:station:TCOON:057:1,2014-08-01T10:24:00Z,28.4460,-96.3961,0.0,2.1,273.0,3.3,'11111222,11111222,11111222' 
TCOON,ioos:station:TCOON:057:1,2014-08-01T10:30:00Z,28.4460,-96.3961,0.0,2.2,270.0,3.1,'11111222,11111222,11111222' 
TCOON,ioos:station:TCOON:057:1,2014-08-01T10:36:00Z,28.4460,-96.3961,0.0,1.9,262.0,2.5,'11111222,11111222,11111222' 
TCOON,ioos:station:TCOON:057:1,2014-08-01T10:42:00Z,28.4460,-96.3961,0.0,1.8,264.0,2.9,'11111222,11111222,11111222' 
TCOON,ioos:station:TCOON:057:1,2014-08-01T10:48:00Z,28.4460,-96.3961,0.0,2.0,261.0,2.4,'11111222,11111222,11111222' 
TCOON,ioos:station:TCOON:057:1,2014-08-01T10:54:00Z,28.4460,-96.3961,0.0,2.4,260.0,2.8,'11111222,11111222,11111222' 
TCOON,ioos:station:TCOON:057:1,2014-08-01T11:00:00Z,28.4460,-96.3961,0.0,2.6,291.0,3.3,'11111222,11111222,11111222' 
TCOON,ioos:station:TCOON:057:1,2014-08-01T11:06:00Z,28.4460,-96.3961,0.0,2.2,292.0,3.1,'11111222,11111222,11111222' 
TCOON,ioos:station:TCOON:057:1,2014-08-01T11:12:00Z,28.4460,-96.3961,0.0,2.2,292.0,3.1,'1111122,1111122,1111122' 
TCOON,ioos:station:TCOON:057:1,2014-08-01T11:18:00Z,28.4460,-96.3961,0.0,1.9,275.0,2.5,'11111222,11111222,11111222' 
TCOON,ioos:station:TCOON:057:1,2014-08-01T11:24:00Z,28.4460,-96.3961,0.0,2.0,273.0,2.9,'11111222,11111222,11111222' 
TCOON,ioos:station:TCOON:057:1,2014-08-01T11:30:00Z,28.4460,-96.3961,0.0,1.5,259.0,2.2,'11111222,11111222,11111222' 
TCOON,ioos:station:TCOON:057:1,2014-08-01T11:36:00Z,28.4460,-96.3961,0.0,2.1,262.0,2.6,'11111222,11111222,11111222' 
TCOON,ioos:station:TCOON:057:1,2014-08-01T11:42:00Z,28.4460,-96.3961,0.0,1.8,273.0,2.7,'11111222,11111222,11111222' 
TCOON,ioos:station:TCOON:057:1,2014-08-01T11:48:00Z,28.4460,-96.3961,0.0,1.9,279.0,2.5,'11111222,11111222,11111222' 
TCOON,ioos:station:TCOON:057:1,2014-08-01T11:54:00Z,28.4460,-96.3961,0.0,2.1,292.0,2.4,'11111222,11111222,11111222' 
TCOON,ioos:station:TCOON:057:1,2014-08-01T12:00:00Z,28.4460,-96.3961,0.0,2.2,280.0,2.6,'11111222,11111222,11111222' 
TCOON,ioos:station:TCOON:057:1,2014-08-01T12:06:00Z,28.4460,-96.3961,0.0,2.1,274.0,2.7,'11111222,11111222,11111222' 
TCOON,ioos:station:TCOON:057:1,2014-08-01T12:12:00Z,28.4460,-96.3961,0.0,2.1,274.0,2.7,'1111122,1111122,1111122' 
TCOON,ioos:station:TCOON:057:1,2014-08-01T12:18:00Z,28.4460,-96.3961,0.0,1.9,279.0,2.4,'11111222,11111222,11111222' 
TCOON,ioos:station:TCOON:057:1,2014-08-01T12:24:00Z,28.4460,-96.3961,0.0,2.1,275.0,2.9,'11111222,11111222,11111222' 
TCOON,ioos:station:TCOON:057:1,2014-08-01T12:30:00Z,28.4460,-96.3961,0.0,2.3,274.0,3.0,'11111222,11111222,11111222' 
TCOON,ioos:station:TCOON:057:1,2014-08-01T12:36:00Z,28.4460,-96.3961,0.0,2.2,267.0,3.1,'11111222,11111222,11111222' 
TCOON,ioos:station:TCOON:057:1,2014-08-01T12:42:00Z,28.4460,-96.3961,0.0,2.6,268.0,3.0,'11111222,11111222,11111222' 
TCOON,ioos:station:TCOON:057:1,2014-08-01T12:48:00Z,28.4460,-96.3961,0.0,2.3,283.0,2.7,'11111222,11111222,11111222' 
TCOON,ioos:station:TCOON:057:1,2014-08-01T12:54:00Z,28.4460,-96.3961,0.0,2.0,292.0,2.5,'11111222,11111222,11111222' 
TCOON,ioos:station:TCOON:057:1,2014-08-01T13:00:00Z,28.4460,-96.3961,0.0,1.5,262.0,2.3,'11111222,11111222,11111222' 
TCOON,ioos:station:TCOON:057:1,2014-08-01T13:06:00Z,28.4460,-96.3961,0.0,2.0,256.0,2.4,'11111222,11111222,11111222' 
TCOON,ioos:station:TCOON:057:1,2014-08-01T13:12:00Z,28.4460,-96.3961,0.0,2.0,256.0,2.4,'1111122,1111122,1111122' 
TCOON,ioos:station:TCOON:057:1,2014-08-01T13:18:00Z,28.4460,-96.3961,0.0,2.0,258.0,2.7,'11111222,11111222,11111222' 
TCOON,ioos:station:TCOON:057:1,2014-08-01T13:24:00Z,28.4460,-96.3961,0.0,1.8,253.0,2.7,'11111222,11111222,11111222' 
TCOON,ioos:station:TCOON:057:1,2014-08-01T13:30:00Z,28.4460,-96.3961,0.0,2.0,241.0,2.6,'11111222,11111222,11111222' 
TCOON,ioos:station:TCOON:057:1,2014-08-01T13:36:00Z,28.4460,-96.3961,0.0,3.2,238.0,4.8,'11111222,11111222,11111222' 
TCOON,ioos:station:TCOON:057:1,2014-08-01T13:42:00Z,28.4460,-96.3961,0.0,4.9,220.0,5.8,'11111222,11111222,11111222' 
TCOON,ioos:station:TCOON:057:1,2014-08-01T13:48:00Z,28.4460,-96.3961,0.0,5.7,219.0,6.6,'11111222,11111222,11111222' 
TCOON,ioos:station:TCOON:057:1,2014-08-01T13:54:00Z,28.4460,-96.3961,0.0,6.1,217.0,6.6,'11111222,11111222,11111222' 
TCOON,ioos:station:TCOON:057:1,2014-08-01T14:00:00Z,28.4460,-96.3961,0.0,5.7,221.0,7.2,'11111222,11111222,11111222' 
TCOON,ioos:station:TCOON:057:1,2014-08-01T14:06:00Z,28.4460,-96.3961,0.0,5.8,220.0,6.9,'11111222,11111222,11111222' 
TCOON,ioos:station:TCOON:057:1,2014-08-01T14:12:00Z,28.4460,-96.3961,0.0,5.8,220.0,6.9,'1111122,1111122,1111122' 
TCOON,ioos:station:TCOON:057:1,2014-08-01T14:18:00Z,28.4460,-96.3961,0.0,6.0,221.0,6.7,'11111222,11111222,11111222' 
TCOON,ioos:station:TCOON:057:1,2014-08-01T14:24:00Z,28.4460,-96.3961,0.0,5.7,226.0,6.9,'11111222,11111222,11111222' 
TCOON,ioos:station:TCOON:057:1,2014-08-01T14:30:00Z,28.4460,-96.3961,0.0,5.9,228.0,6.7,'11111222,11111222,11111222' 
TCOON,ioos:station:TCOON:057:1,2014-08-01T14:36:00Z,28.4460,-96.3961,0.0,5.2,221.0,6.4,'11111222,11111222,11111222' 
TCOON,ioos:station:TCOON:057:1,2014-08-01T14:42:00Z,28.4460,-96.3961,0.0,5.6,227.0,6.7,'11111222,11111222,11111222' 
TCOON,ioos:station:TCOON:057:1,2014-08-01T14:48:00Z,28.4460,-96.3961,0.0,5.6,225.0,7.3,'11111222,11111222,11111222' 
TCOON,ioos:station:TCOON:057:1,2014-08-01T14:54:00Z,28.4460,-96.3961,0.0,5.9,218.0,6.8,'11111222,11111222,11111222' 
TCOON,ioos:station:TCOON:057:1,2014-08-01T15:00:00Z,28.4460,-96.3961,0.0,5.4,220.0,6.6,'11111222,11111222,11111222' 
TCOON,ioos:station:TCOON:057:1,2014-08-01T15:06:00Z,28.4460,-96.3961,0.0,5.8,228.0,6.8,'11111222,11111222,11111222' 
TCOON,ioos:station:TCOON:057:1,2014-08-01T15:12:00Z,28.4460,-96.3961,0.0,5.8,228.0,6.8,'1111122,1111122,1111122' 
TCOON,ioos:station:TCOON:057:1,2014-08-01T15:18:00Z,28.4460,-96.3961,0.0,5.6,217.0,6.5,'11111222,11111222,11111222' 
TCOON,ioos:station:TCOON:057:1,2014-08-01T15:24:00Z,28.4460,-96.3961,0.0,5.8,228.0,7.0,'11111222,11111222,11111222' 
TCOON,ioos:station:TCOON:057:1,2014-08-01T15:30:00Z,28.4460,-96.3961,0.0,5.0,217.0,7.0,'11111222,11111222,11111222' 
TCOON,ioos:station:TCOON:057:1,2014-08-01T15:36:00Z,28.4460,-96.3961,0.0,5.6,223.0,6.1,'11111222,11111222,11111222' 
TCOON,ioos:station:TCOON:057:1,2014-08-01T15:42:00Z,28.4460,-96.3961,0.0,4.7,224.0,6.2,'11111222,11111222,11111222' 
TCOON,ioos:station:TCOON:057:1,2014-08-01T15:48:00Z,28.4460,-96.3961,0.0,5.2,223.0,6.2,'11111222,11111222,11111222' 
TCOON,ioos:station:TCOON:057:1,2014-08-01T15:54:00Z,28.4460,-96.3961,0.0,5.3,221.0,6.2,'11111222,11111222,11111222' 
TCOON,ioos:station:TCOON:057:1,2014-08-01T16:00:00Z,28.4460,-96.3961,0.0,4.9,214.0,5.9,'11111222,11111222,11111222' 
TCOON,ioos:station:TCOON:057:1,2014-08-01T16:06:00Z,28.4460,-96.3961,0.0,4.1,225.0,5.7,'11111222,11111222,11111222' 
TCOON,ioos:station:TCOON:057:1,2014-08-01T16:12:00Z,28.4460,-96.3961,0.0,4.1,225.0,5.7,'1111122,1111122,1111122' 
TCOON,ioos:station:TCOON:057:1,2014-08-01T16:18:00Z,28.4460,-96.3961,0.0,4.5,228.0,5.9,'11111222,11111222,11111222' 
TCOON,ioos:station:TCOON:057:1,2014-08-01T16:24:00Z,28.4460,-96.3961,0.0,4.2,194.0,5.2,'11111222,11111222,11111222' 
TCOON,ioos:station:TCOON:057:1,2014-08-01T16:30:00Z,28.4460,-96.3961,0.0,4.7,221.0,5.5,'11111222,11111222,11111222' 
TCOON,ioos:station:TCOON:057:1,2014-08-01T16:36:00Z,28.4460,-96.3961,0.0,5.0,207.0,7.3,'11111222,11111222,11111222' 
TCOON,ioos:station:TCOON:057:1,2014-08-01T16:42:00Z,28.4460,-96.3961,0.0,5.0,217.0,6.6,'11111222,11111222,11111222' 
TCOON,ioos:station:TCOON:057:1,2014-08-01T16:48:00Z,28.4460,-96.3961,0.0,4.9,224.0,6.4,'11111222,11111222,11111222' 
TCOON,ioos:station:TCOON:057:1,2014-08-01T16:54:00Z,28.4460,-96.3961,0.0,5.6,192.0,7.4,'11111222,11111222,11111222' 
TCOON,ioos:station:TCOON:057:1,2014-08-01T17:00:00Z,28.4460,-96.3961,0.0,4.6,200.0,7.2,'11111222,11111222,11111222' 
TCOON,ioos:station:TCOON:057:1,2014-08-01T17:06:00Z,28.4460,-96.3961,0.0,5.4,207.0,8.1,'11111222,11111222,11111222' 
TCOON,ioos:station:TCOON:057:1,2014-08-01T17:12:00Z,28.4460,-96.3961,0.0,5.4,207.0,8.1,'1111122,1111122,1111122' 
TCOON,ioos:station:TCOON:057:1,2014-08-01T17:18:00Z,28.4460,-96.3961,0.0,5.6,217.0,7.1,'11111222,11111222,11111222' 
TCOON,ioos:station:TCOON:057:1,2014-08-01T17:24:00Z,28.4460,-96.3961,0.0,4.8,201.0,6.8,'11111222,11111222,11111222' 
TCOON,ioos:station:TCOON:057:1,2014-08-01T17:30:00Z,28.4460,-96.3961,0.0,5.8,216.0,7.0,'11111222,11111222,11111222' 
TCOON,ioos:station:TCOON:057:1,2014-08-01T17:36:00Z,28.4460,-96.3961,0.0,5.7,221.0,6.7,'11111222,11111222,11111222' 
TCOON,ioos:station:TCOON:057:1,2014-08-01T17:42:00Z,28.4460,-96.3961,0.0,5.9,219.0,7.1,'11111222,11111222,11111222' 
TCOON,ioos:station:TCOON:057:1,2014-08-01T17:48:00Z,28.4460,-96.3961,0.0,6.0,214.0,7.3,'11111222,11111222,11111222' 
TCOON,ioos:station:TCOON:057:1,2014-08-01T17:54:00Z,28.4460,-96.3961,0.0,5.6,213.0,6.4,'11111222,11111222,11111222' 
TCOON,ioos:station:TCOON:057:1,2014-08-01T18:00:00Z,28.4460,-96.3961,0.0,5.6,205.0,7.0,'11111222,11111222,11111222' 
TCOON,ioos:station:TCOON:057:1,2014-08-01T18:06:00Z,28.4460,-96.3961,0.0,5.8,218.0,7.3,'11111222,11111222,11111222' 
TCOON,ioos:station:TCOON:057:1,2014-08-01T18:12:00Z,28.4460,-96.3961,0.0,5.8,218.0,7.3,'1111122,1111122,1111122' 
TCOON,ioos:station:TCOON:057:1,2014-08-01T18:18:00Z,28.4460,-96.3961,0.0,6.3,196.0,8.2,'11111222,11111222,11111222' 
TCOON,ioos:station:TCOON:057:1,2014-08-01T18:24:00Z,28.4460,-96.3961,0.0,4.8,203.0,7.4,'11111222,11111222,11111222' 
TCOON,ioos:station:TCOON:057:1,2014-08-01T18:30:00Z,28.4460,-96.3961,0.0,6.3,200.0,7.7,'11111222,11111222,11111222' 
TCOON,ioos:station:TCOON:057:1,2014-08-01T18:36:00Z,28.4460,-96.3961,0.0,6.4,206.0,7.9,'11111222,11111222,11111222' 
TCOON,ioos:station:TCOON:057:1,2014-08-01T18:42:00Z,28.4460,-96.3961,0.0,6.3,204.0,7.5,'11111222,11111222,11111222' 
TCOON,ioos:station:TCOON:057:1,2014-08-01T18:48:00Z,28.4460,-96.3961,0.0,6.3,190.0,7.8,'11111222,11111222,11111222' 
TCOON,ioos:station:TCOON:057:1,2014-08-01T18:54:00Z,28.4460,-96.3961,0.0,6.1,200.0,8.0,'11111222,11111222,11111222' 
TCOON,ioos:station:TCOON:057:1,2014-08-01T19:00:00Z,28.4460,-96.3961,0.0,5.8,203.0,7.3,'11111222,11111222,11111222' 
TCOON,ioos:station:TCOON:057:1,2014-08-01T19:06:00Z,28.4460,-96.3961,0.0,5.7,200.0,6.7,'11111222,11111222,11111222' 
TCOON,ioos:station:TCOON:057:1,2014-08-01T19:12:00Z,28.4460,-96.3961,0.0,5.7,200.0,6.7,'1111122,1111122,1111122' 
TCOON,ioos:station:TCOON:057:1,2014-08-01T19:18:00Z,28.4460,-96.3961,0.0,5.7,219.0,7.9,'11111222,11111222,11111222' 
TCOON,ioos:station:TCOON:057:1,2014-08-01T19:24:00Z,28.4460,-96.3961,0.0,5.6,217.0,7.9,'11111222,11111222,11111222' 
TCOON,ioos:station:TCOON:057:1,2014-08-01T19:30:00Z,28.4460,-96.3961,0.0,6.0,205.0,7.2,'11111222,11111222,11111222' 
TCOON,ioos:station:TCOON:057:1,2014-08-01T19:36:00Z,28.4460,-96.3961,0.0,5.4,222.0,7.6,'11111222,11111222,11111222' 
TCOON,ioos:station:TCOON:057:1,2014-08-01T19:42:00Z,28.4460,-96.3961,0.0,4.2,203.0,6.9,'11111222,11111222,11111222' 
TCOON,ioos:station:TCOON:057:1,2014-08-01T19:48:00Z,28.4460,-96.3961,0.0,5.1,229.0,7.5,'11111222,11111222,11111222' 
TCOON,ioos:station:TCOON:057:1,2014-08-01T19:54:00Z,28.4460,-96.3961,0.0,4.7,215.0,7.0,'11111222,11111222,11111222' 
TCOON,ioos:station:TCOON:057:1,2014-08-01T20:00:00Z,28.4460,-96.3961,0.0,4.3,220.0,6.7,'11111222,11111222,11111222' 
TCOON,ioos:station:TCOON:057:1,2014-08-01T20:06:00Z,28.4460,-96.3961,0.0,4.8,228.0,5.5,'11111222,11111222,11111222' 
TCOON,ioos:station:TCOON:057:1,2014-08-01T20:12:00Z,28.4460,-96.3961,0.0,4.8,228.0,5.5,'1111122,1111122,1111122' 
TCOON,ioos:station:TCOON:057:1,2014-08-01T20:18:00Z,28.4460,-96.3961,0.0,5.0,178.0,6.4,'11111222,11111222,11111222' 